EA1CUE-WX Weather Reports


time (UTC)temp
C
wind
direction
speed
KPH
gust
KPH
rain 1hr
cm
rain 24hr
cm
rain mn
cm
humidity
%
barometer
mb
20260508100846 7 92 1.6 9.7 0.08 1.04 0.00 1 1007.4
20260508100346 7 120 1.6 12.9 0.15 1.04 0.00 1 1007.4
20260508095846 7 101 6.4 11.3 0.18 1.04 0.00 1 1007.4
20260508095346 7 72 4.8 9.7 0.18 1.04 0.00 1 1007.4
20260508094846 7 86 4.8 11.3 0.20 1.04 0.00 1 1007.3
20260508094346 7 78 6.4 8.0 0.23 1.04 0.00 1 1007.5
20260508093846 7 120 3.2 8.0 0.20 1.02 0.00 1 1007.5
20260508093346 7 103 0.0 1.6 0.20 1.02 0.00 1 1007.4
20260508092846 7 340 0.0 3.2 0.23 1.02 0.00 1 1007.1
20260508092346 6 238 1.6 17.7 0.25 1.02 0.00 1 1006.9
20260508091846 6 219 0.0 17.7 0.28 1.02 0.00 1 1007.7
20260508091346 6 85 8.0 9.7 0.23 0.99 0.00 1 1008.2
20260508090846 6 184 4.8 8.0 0.20 0.94 0.00 1 1008.4
20260508090346 7 76 1.6 11.3 0.23 0.89 0.00 1 1008.5
20260508085846 7 140 0.0 0.0 0.20 0.86 0.00 1 1008.5
20260508085346 7 94 0.0 3.2 0.18 0.84 0.00 1 1008.2
20260508084846 7 120 0.0 0.0 0.18 0.84 0.00 1 1008.2
20260508084346 7 120 0.0 6.4 0.15 0.81 0.00 1 1008.2
20260508083846 7 130 1.6 3.2 0.18 0.81 0.00 1 1008.1
20260508083346 7 27 0.0 1.6 0.18 0.81 0.00 1 1007.9
20260508082846 7 7 0.0 0.0 0.15 0.79 0.00 1 1007.6
20260508082346 7 91 0.0 0.0 0.15 0.76 0.00 1 1007.4
20260508081846 7 91 0.0 0.0 0.13 0.74 0.00 1 1007.5
20260508081346 7 91 0.0 1.6 0.13 0.74 0.00 1 1007.6
20260508080846 7 90 1.6 3.2 0.10 0.74 0.00 1 1007.4
20260508080346 7 75 0.0 0.0 0.03 0.64 0.00 1 1007.7
20260508075846 7 75 0.0 1.6 0.03 0.64 0.00 1 1007.4
20260508075346 7 340 0.0 0.0 0.03 0.64 0.00 1 1007.3
20260508074846 7 338 0.0 0.0 0.03 0.64 0.00 1 1007.2
20260508074346 7 333 0.0 1.6 0.03 0.64 0.00 1 1007.3
20260508073846 7 325 0.0 1.6 0.00 0.64 0.00 1 1007.2
20260508073346 7 54 0.0 0.0 0.00 0.64 0.00 1 1007.3
20260508072846 7 54 0.0 0.0 0.00 0.64 0.00 1 1007.2
20260508072346 7 54 0.0 0.0 0.00 0.61 0.00 1 1007.5
20260508071846 7 54 0.0 0.0 0.00 0.61 0.00 1 1007.4
20260508071346 7 54 0.0 1.6 0.03 0.61 0.00 1 1007.4
20260508070846 7 54 0.0 1.6 0.03 0.61 0.00 1 1007.4
20260508070346 7 101 0.0 4.8 0.03 0.61 0.00 1 1007.4
20260508065846 7 91 1.6 6.4 0.05 0.61 0.00 1 1007.6
20260508065346 7 82 4.8 6.4 0.05 0.61 0.00 1 1007.4
20260508064846 7 100 0.0 6.4 0.08 0.61 0.00 1 1007.2
20260508064346 7 112 3.2 3.2 0.08 0.61 0.00 1 1006.9
20260508063846 7 108 0.0 1.6 0.10 0.61 0.00 1 1006.7
20260508063346 7 3 0.0 0.0 0.10 0.61 0.00 1 1006.8
20260508062846 7 106 0.0 0.0 0.10 0.61 0.00 1 1007.2
20260508062346 7 107 0.0 0.0 0.08 0.58 0.00 1 1007.4
20260508061846 7 107 0.0 3.2 0.10 0.58 0.00 1 1007.3
20260508061346 7 33 0.0 0.0 0.08 0.56 0.00 1 1007.3
20260508060846 7 359 0.0 0.0 0.10 0.56 0.00 1 1007.2
20260508060346 7 323 0.0 0.0 0.13 0.56 0.00 1 1007.2
20260508055846 7 320 0.0 1.6 0.13 0.56 0.00 1 1007.2
20260508055346 7 316 0.0 9.7 0.15 0.56 0.00 1 1007.3
20260508054846 8 274 0.0 3.2 0.18 0.53 0.00 1 1007.3
20260508054346 8 295 1.6 6.4 0.18 0.51 0.00 1 1007.3
20260508053846 7 285 0.0 1.6 0.18 0.48 0.00 1 1007.4
20260508053346 7 285 0.0 1.6 0.20 0.48 0.00 1 1007.3
20260508052846 7 303 0.0 4.8 0.20 0.48 0.00 1 1007.1
20260508052346 7 303 4.8 4.8 0.20 0.48 0.00 1 1007.0
20260508051846 7 340 0.0 0.0 0.18 0.46 0.00 1 1006.8
20260508051346 7 340 0.0 0.0 0.23 0.46 0.00 1 1006.7
20260508050846 7 336 0.0 1.6 0.20 0.46 0.00 1 1006.7
20260508050346 7 257 0.0 4.8 0.18 0.46 0.00 1 1006.7
20260508045846 8 264 3.2 3.2 0.18 0.43 0.00 1 1006.6
20260508045346 7 63 0.0 1.6 0.15 0.41 0.00 1 1006.7
20260508044846 7 67 1.6 3.2 0.10 0.36 0.00 1 1006.8
20260508044346 7 273 0.0 0.0 0.08 0.33 0.00 1 1006.8
20260508043846 7 273 0.0 0.0 0.05 0.30 0.00 1 1006.8
20260508043346 7 273 0.0 1.6 0.03 0.28 0.00 1 1006.7
20260508042846 7 273 0.0 0.0 0.03 0.28 0.00 1 1006.5
20260508042346 7 273 0.0 0.0 0.03 0.28 0.00 1 1006.7
20260508041846 7 273 0.0 0.0 0.03 0.28 0.00 1 1006.8
20260508041346 7 273 0.0 0.0 0.00 0.25 0.00 1 1006.8
20260508040846 7 273 0.0 0.0 0.00 0.25 0.00 1 1006.8
20260508040346 7 273 0.0 0.0 0.00 0.25 0.00 1 1006.8
20260508035846 7 273 0.0 1.6 0.00 0.25 0.00 1 1006.8
20260508035346 7 235 0.0 0.0 0.00 0.25 0.00 1 1006.9
20260508034846 7 235 0.0 0.0 0.00 0.25 0.00 1 1007.0
20260508034347 7 235 0.0 0.0 0.00 0.25 0.00 1 1007.1
20260508033846 7 235 0.0 0.0 0.00 0.25 0.00 1 1007.1
20260508033346 7 235 0.0 0.0 0.00 0.25 0.00 1 1007.2
20260508032846 7 235 0.0 0.0 0.00 0.25 0.00 1 1007.3
20260508032346 7 235 0.0 0.0 0.00 0.25 0.00 1 1007.4
20260508031846 7 235 0.0 0.0 0.00 0.25 0.00 1 1007.4
20260508031346 7 235 0.0 0.0 0.00 0.25 0.00 1 1007.4
20260508030846 7 235 0.0 0.0 0.00 0.25 0.00 1 1007.5
20260508030346 7 235 0.0 0.0 0.00 0.25 0.00 1 1007.5
20260508025846 7 235 0.0 0.0 0.00 0.25 0.00 1 1007.6
20260508025346 7 235 0.0 0.0 0.00 0.25 0.00 1 1007.7
20260508024846 7 233 0.0 0.0 0.00 0.25 0.00 1 1007.7
20260508024346 7 233 0.0 0.0 0.00 0.25 0.00 1 1007.7
20260508023846 7 233 0.0 0.0 0.00 0.25 0.00 1 1007.8
20260508023346 7 233 0.0 0.0 0.00 0.25 0.00 1 1007.9
20260508022846 7 233 0.0 0.0 0.00 0.25 0.00 1 1008.1
20260508022346 7 233 0.0 0.0 0.00 0.25 0.00 1 1008.1
20260508021846 7 233 0.0 0.0 0.00 0.25 0.00 1 1008.0
20260508021346 7 233 0.0 0.0 0.00 0.25 0.00 1 1008.0
20260508020846 7 233 0.0 0.0 0.00 0.25 0.00 1 1008.2
20260508020346 7 233 0.0 0.0 0.00 0.25 0.00 1 1008.3
20260508015346 7 233 0.0 0.0 0.00 0.25 0.00 1 1008.3
20260508014847 7 233 0.0 0.0 0.00 0.25 0.00 1 1008.4
20260508014346 7 233 0.0 0.0 0.00 0.25 0.00 1 1008.5
20260508013846 7 233 0.0 0.0 0.00 0.25 0.00 1 1008.7
20260508013346 7 233 0.0 0.0 0.00 0.25 0.00 1 1008.8
20260508012846 7 233 0.0 1.6 0.00 0.25 0.00 1 1008.9
20260508012346 7 236 0.0 0.0 0.00 0.25 0.00 1 1009.0
20260508011846 7 275 0.0 0.0 0.00 0.25 0.00 1 1009.1
20260508011346 7 275 0.0 0.0 0.00 0.25 0.00 1 1009.1
20260508010846 7 275 0.0 0.0 0.00 0.25 0.00 1 1009.2
20260508010346 7 275 0.0 0.0 0.00 0.25 0.00 1 1009.2
20260508005846 8 275 0.0 0.0 0.00 0.25 0.00 1 1009.3
20260508005346 8 275 0.0 0.0 0.00 0.25 0.00 1 1009.3
20260508004846 8 271 0.0 0.0 0.00 0.25 0.00 1 1009.4
20260508004346 8 271 0.0 0.0 0.00 0.25 0.00 1 1009.5
20260508003846 8 271 0.0 0.0 0.00 0.25 0.00 1 1009.7
20260508003346 8 271 0.0 1.6 0.00 0.25 0.00 1 1009.7
20260508002846 8 259 0.0 0.0 0.00 0.25 0.00 1 1009.9
20260508002346 8 259 0.0 0.0 0.00 0.25 0.00 1 1010.0
20260508001846 8 259 0.0 0.0 0.00 0.25 0.00 1 1010.2
20260508001346 8 259 0.0 0.0 0.00 0.25 0.00 1 1010.3
20260508000846 8 259 0.0 1.6 0.00 0.25 0.00 1 1010.4
20260508000346 8 124 0.0 3.2 0.00 0.25 0.00 1 1010.5
20260507235846 8 115 3.2 6.4 0.00 0.25 0.00 1 1010.3
20260507235346 8 91 1.6 9.7 0.00 0.25 0.00 1 1010.5
20260507234846 8 99 4.8 11.3 0.00 0.25 0.00 1 1010.7
20260507234346 8 86 0.0 3.2 0.00 0.25 0.00 1 1010.9
20260507233846 8 289 0.0 1.6 0.00 0.25 0.00 1 1010.8
20260507233346 8 289 0.0 0.0 0.00 0.25 0.00 1 1010.7
20260507232846 8 289 0.0 0.0 0.00 0.25 0.00 1 1010.6
20260507232346 8 289 0.0 0.0 0.00 0.25 0.00 1 1010.6
20260507231846 8 289 0.0 0.0 0.00 0.25 0.00 1 1010.8
20260507231346 8 289 0.0 3.2 0.00 0.25 0.00 1 1010.9
20260507230846 8 290 0.0 3.2 0.00 0.25 0.00 1 1010.8
20260507230346 8 264 0.0 0.0 0.00 0.25 0.00 1 1010.9
20260507225846 8 264 0.0 0.0 0.00 0.25 0.00 1 1010.9
20260507225346 8 264 0.0 1.6 0.00 0.25 0.00 1 1011.0
20260507224846 8 264 0.0 0.0 0.00 0.25 0.00 1 1011.0
20260507224346 8 264 0.0 0.0 0.00 0.25 0.00 1 1011.0
20260507223846 8 264 0.0 0.0 0.00 0.25 0.00 1 1011.0
20260507223346 8 264 0.0 0.0 0.00 0.25 0.00 1 1011.2
20260507222846 8 264 0.0 0.0 0.00 0.25 0.00 1 1011.2
20260507222346 8 248 0.0 0.0 0.00 0.25 0.00 1 1011.2
20260507221846 8 245 0.0 0.0 0.00 0.25 0.00 1 1011.1
20260507221346 8 245 0.0 0.0 0.00 0.25 0.00 1 1011.1
20260507220846 8 245 0.0 0.0 0.00 0.25 0.00 1 1011.1
20260507220346 8 204 0.0 0.0 0.00 0.25 0.00 1 1011.0
20260507215846 8 120 0.0 0.0 0.00 0.25 0.00 1 1011.1
20260507215346 8 125 0.0 3.2 0.00 0.25 0.00 1 1011.1
20260507214846 8 102 0.0 0.0 0.00 0.25 0.00 1 1011.2
20260507214346 8 103 0.0 3.2 0.00 0.25 0.00 1 1011.2
20260507213846 8 78 1.6 3.2 0.00 0.25 0.00 1 1011.3
20260507213346 8 118 1.6 4.8 0.05 0.25 0.00 1 1011.2
20260507212846 8 165 0.0 3.2 0.08 0.25 0.00 1 1011.3
20260507212346 8 162 0.0 6.4 0.10 0.25 0.00 1 1011.2
20260507211846 8 128 0.0 6.4 0.13 0.25 0.00 1 1011.1
20260507211346 8 166 0.0 1.6 0.13 0.25 0.00 1 1011.1
20260507210846 8 92 0.0 1.6 0.15 0.25 0.00 1 1011.0
20260507210346 9 327 0.0 0.0 0.15 0.25 0.00 1 1010.9
20260507205846 9 328 0.0 3.2 0.18 0.25 0.00 1 1011.0
20260507205346 9 277 0.0 9.7 0.18 0.25 0.00 1 1010.9
20260507204846 9 302 4.8 9.7 0.18 0.25 0.00 1 1010.9
20260507204346 9 293 0.0 3.2 0.15 0.23 0.00 1 1011.0
20260507203846 9 307 1.6 3.2 0.18 0.23 0.00 1 1010.9
20260507203346 10 304 0.0 1.6 0.15 0.18 0.00 1 1011.0
20260507202846 9 299 0.0 4.8 0.13 0.15 0.00 1 1011.0
20260507202346 9 302 3.2 6.4 0.10 0.13 0.00 1 1010.9
20260507201846 9 283 0.0 1.6 0.08 0.10 0.00 1 1010.8
20260507201346 9 283 0.0 0.0 0.08 0.10 0.00 1 1010.7
20260507200846 9 283 0.0 1.6 0.08 0.08 0.00 1 1010.7
20260507200346 9 304 0.0 0.0 0.08 0.08 0.00 1 1010.5
20260507195846 10 41 0.0 0.0 0.05 0.08 0.00 1 1010.4
20260507195346 10 73 0.0 0.0 0.05 0.08 0.00 1 1010.3
20260507194846 9 74 0.0 0.0 0.05 0.08 0.00 1 1010.3
20260507194346 10 77 0.0 0.0 0.05 0.08 0.00 1 1010.2
20260507193846 10 61 0.0 6.4 0.03 0.05 0.00 1 1010.1
20260507193346 10 160 0.0 6.4 0.00 0.03 0.00 4 1010.1
20260507192846 11 248 0.0 12.9 0.00 0.00 0.00 19 1010.0
20260507191846 11 103 4.8 9.7 0.00 0.00 0.00 35 1009.9
20260507191346 12 84 0.0 12.9 0.00 0.00 0.00 40 1009.8
20260507190846 12 71 4.8 9.7 0.00 0.00 0.00 44 1009.8
20260507190346 12 83 1.6 4.8 0.00 0.00 0.00 44 1009.7
20260507185846 13 80 1.6 3.2 0.00 0.00 0.00 47 1009.6
20260507185346 13 287 0.0 1.6 0.00 0.00 0.00 48 1009.3
20260507184846 13 304 0.0 6.4 0.00 0.00 0.00 49 1009.2
20260507184346 13 310 1.6 3.2 0.00 0.00 0.00 49 1009.1
20260507183846 13 315 0.0 6.4 0.00 0.00 0.00 50 1009.2
20260507183347 14 237 0.0 1.6 0.00 0.00 0.00 51 1009.1
20260507182846 14 338 0.0 4.8 0.00 0.00 0.00 51 1009.0
20260507182346 15 333 0.0 6.4 0.00 0.00 0.00 51 1009.0
20260507181846 15 330 0.0 1.6 0.00 0.00 0.00 51 1009.0
20260507181346 15 317 0.0 1.6 0.00 0.00 0.00 51 1008.9
20260507180846 15 333 0.0 4.8 0.00 0.00 0.00 51 1008.9
20260507180346 15 31 0.0 1.6 0.00 0.00 0.00 51 1008.8
20260507175846 14 316 0.0 0.0 0.00 0.00 0.00 51 1008.8
20260507175346 14 326 0.0 1.6 0.00 0.00 0.00 52 1008.8
20260507174846 13 344 0.0 3.2 0.00 0.00 0.00 53 1008.7
20260507174346 13 307 0.0 4.8 0.00 0.00 0.00 54 1008.6
20260507173846 13 311 0.0 8.0 0.00 0.00 0.00 54 1008.5
20260507173346 13 330 3.2 9.7 0.00 0.00 0.00 52 1008.4
20260507172846 14 306 6.4 16.1 0.00 0.00 0.00 50 1008.4
20260507172346 14 273 4.8 19.3 0.00 0.00 0.00 49 1008.3
20260507171846 14 295 4.8 20.9 0.00 0.00 0.00 49 1008.2
20260507171346 14 306 6.4 19.3 0.00 0.00 0.00 49 1008.1
20260507170846 14 275 8.0 19.3 0.00 0.00 0.00 49 1008.0
20260507170346 14 285 16.1 16.1 0.00 0.00 0.00 51 1008.0
20260507165846 14 222 3.2 20.9 0.00 0.00 0.00 52 1008.0
20260507165346 14 258 4.8 17.7 0.00 0.00 0.00 52 1007.9
20260507164846 14 280 3.2 14.5 0.00 0.00 0.00 53 1007.9
20260507164346 14 285 8.0 22.5 0.00 0.00 0.00 52 1008.0
20260507163846 15 303 9.7 19.3 0.00 0.00 0.00 52 1008.0
20260507163346 15 341 3.2 17.7 0.00 0.00 0.00 52 1008.0
20260507162846 16 358 9.7 24.1 0.00 0.00 0.00 51 1007.8
20260507162346 16 289 16.1 19.3 0.00 0.00 0.00 50 1007.9
20260507161846 16 260 11.3 20.9 0.00 0.00 0.00 48 1007.9
20260507161346 16 322 9.7 17.7 0.00 0.00 0.00 50 1007.9
20260507160846 16 294 1.6 17.7 0.00 0.00 0.00 50 1007.8
20260507160346 17 305 4.8 20.9 0.00 0.00 0.00 50 1007.8
20260507155846 17 283 4.8 19.3 0.00 0.00 0.00 50 1007.7
20260507155346 17 0 8.0 16.1 0.00 0.00 0.00 49 1007.6
20260507154846 17 325 6.4 12.9 0.00 0.00 0.00 50 1007.5
20260507154346 17 247 1.6 14.5 0.00 0.00 0.00 50 1007.4
20260507153846 16 330 3.2 11.3 0.00 0.00 0.00 50 1007.4
20260507153346 16 340 3.2 16.1 0.00 0.00 0.00 51 1007.4
20260507152846 15 309 4.8 16.1 0.00 0.00 0.00 51 1007.5
20260507152346 16 269 9.7 17.7 0.00 0.00 0.00 51 1007.3
20260507151846 16 242 1.6 16.1 0.00 0.00 0.00 50 1007.4
20260507151346 16 266 9.7 20.9 0.00 0.00 0.00 50 1007.4
20260507150846 15 255 16.1 19.3 0.00 0.00 0.00 50 1007.5
20260507150346 15 261 4.8 16.1 0.00 0.00 0.00 52 1007.6
20260507145846 15 272 6.4 17.7 0.00 0.00 0.00 53 1007.6
20260507145346 16 274 3.2 20.9 0.00 0.00 0.00 52 1007.7
20260507144846 17 249 3.2 8.0 0.00 0.00 0.00 41 1007.6
20260507144346 17 287 3.2 9.7 0.00 0.00 0.00 42 1007.5
20260507143846 17 106 1.6 6.4 0.00 0.00 0.00 43 1007.6
20260507143346 17 229 0.0 8.0 0.00 0.00 0.00 44 1007.5
20260507142846 17 143 4.8 8.0 0.00 0.00 0.00 46 1007.4
20260507142346 17 309 0.0 8.0 0.00 0.00 0.00 46 1007.4
20260507141846 17 129 4.8 8.0 0.00 0.00 0.00 46 1007.4
20260507141346 17 96 3.2 8.0 0.00 0.00 0.00 47 1007.6
20260507140846 16 105 1.6 9.7 0.00 0.00 0.00 49 1007.5
20260507140346 16 100 6.4 12.9 0.00 0.00 0.00 48 1007.5
20260507135846 17 108 3.2 14.5 0.00 0.00 0.00 47 1007.5
20260507135346 17 70 9.7 11.3 0.00 0.00 0.00 45 1007.6
20260507134846 17 302 3.2 8.0 0.00 0.00 0.00 46 1007.5
20260507134346 17 123 4.8 9.7 0.00 0.00 0.00 43 1007.5
20260507133846 17 284 8.0 14.5 0.00 0.00 0.00 45 1007.4
20260507133346 17 208 3.2 12.9 0.00 0.00 0.00 44 1007.4
20260507132846 17 224 8.0 14.5 0.00 0.00 0.00 45 1007.5
20260507132346 17 229 3.2 12.9 0.00 0.00 0.00 42 1007.4
20260507131846 17 212 8.0 11.3 0.00 0.00 0.00 45 1007.5
20260507131346 17 287 1.6 11.3 0.00 0.00 0.00 44 1007.5
20260507130846 17 84 6.4 9.7 0.00 0.00 0.00 45 1007.6
20260507130346 17 122 8.0 11.3 0.00 0.00 0.00 44 1007.5
20260507125846 17 213 4.8 9.7 0.00 0.00 0.00 44 1007.6
20260507125346 17 82 8.0 12.9 0.00 0.00 0.00 47 1007.5
20260507124846 17 72 6.4 12.9 0.00 0.00 0.00 45 1007.5
20260507124346 17 307 4.8 8.0 0.00 0.00 0.00 44 1007.6
20260507123846 16 233 1.6 8.0 0.00 0.00 0.00 41 1007.7
20260507123346 17 173 4.8 12.9 0.00 0.00 0.00 41 1007.7
20260507122846 17 255 3.2 19.3 0.00 0.00 0.00 45 1007.7
20260507122346 16 103 14.5 14.5 0.00 0.00 0.00 45 1007.8
20260507121846 16 124 9.7 25.7 0.00 0.00 0.00 44 1007.8
20260507121346 16 259 1.6 14.5 0.00 0.00 0.00 46 1008.0
20260507120846 16 217 6.4 9.7 0.00 0.00 0.00 46 1008.0
20260507120346 16 310 3.2 6.4 0.00 0.00 0.00 48 1008.0
20260507115846 16 300 1.6 6.4 0.00 0.00 0.00 48 1008.1
20260507115346 16 117 0.0 4.8 0.00 0.00 0.00 48 1008.0
20260507114846 16 259 4.8 4.8 0.00 0.00 0.00 48 1008.1
20260507114346 16 85 0.0 4.8 0.00 0.00 0.00 47 1008.1
20260507113846 16 275 0.0 6.4 0.00 0.00 0.00 47 1008.1
20260507113346 16 119 4.8 6.4 0.00 0.00 0.00 46 1008.1
20260507112846 15 331 0.0 8.0 0.00 0.00 0.00 41 1008.0
20260507112346 15 64 6.4 9.7 0.00 0.00 0.00 45 1008.1
20260507111846 15 120 6.4 11.3 0.00 0.00 0.00 46 1008.2
20260507111346 15 101 4.8 12.9 0.00 0.00 0.00 46 1008.2
20260507110846 15 107 1.6 9.7 0.00 0.00 0.00 44 1008.2
20260507110346 15 101 8.0 12.9 0.00 0.00 0.00 41 1008.2
20260507105846 15 240 1.6 9.7 0.00 0.00 0.00 44 1008.2
20260507105346 15 162 8.0 14.5 0.00 0.00 0.00 43 1008.3
20260507103346 14 101 3.2 12.9 0.00 0.00 0.00 43 1008.4
20260507102846 15 47 4.8 11.3 0.00 0.00 0.00 38 1008.4
20260507102346 14 30 0.0 8.0 0.00 0.00 0.00 32 1008.4
20260507101846 14 93 4.8 14.5 0.00 0.00 0.00 35 1008.5
20260507101347 14 42 0.0 12.9 0.00 0.00 0.00 20 1008.4